This is the latest recevied weather packets stored in our database for station/object K5NWZ. If no packets are shown the sender has not sent any weather packets the latest 10 day(s).
| Time | Temp. | Humidity | Pressure | Rain* | Wind** | Luminosity | Snow |
|---|---|---|---|---|---|---|---|
| 1788003068 | 21.11° C | 53% | 1027.3 hPa | 0 mm | - | 0 W/m² | - |
| 1788002768 | 21.67° C | 52% | 1027.3 hPa | 0 mm | - | 0 W/m² | - |
| 1788002464 | 21.67° C | 50% | 1027.3 hPa | 0 mm | - | 0 W/m² | - |
| 1788002158 | 21.67° C | 50% | 1027.3 hPa | 0 mm | - | 0 W/m² | - |
| 1788001853 | 21.67° C | 48% | 1027.2 hPa | 0 mm | - | 0 W/m² | - |
| 1788001548 | 21.67° C | 49% | 1027.3 hPa | 0 mm | - | 0 W/m² | - |
| 1788001238 | 21.67° C | 47% | 1027.4 hPa | 0 mm | - | 0 W/m² | - |
| 1788000937 | 22.22° C | 49% | 1027.5 hPa | 0 mm | - | 0 W/m² | - |
| 1788000632 | 22.78° C | 48% | 1027.3 hPa | 0 mm | - | 0 W/m² | - |
| 1788000327 | 22.78° C | 45% | 1027.4 hPa | 0 mm | - | 0 W/m² | - |
| 1788000027 | 22.78° C | 47% | 1027.3 hPa | 0 mm | - | 0 W/m² | - |
| 1787999723 | 22.78° C | 46% | 1027.3 hPa | 0 mm | - | 0 W/m² | - |
| 1787999421 | 22.78° C | 47% | 1027.4 hPa | 0 mm | - | 0 W/m² | - |
| 1787999119 | 22.22° C | 49% | 1027.4 hPa | 0 mm | - | 0 W/m² | - |
| 1787998815 | 22.22° C | 48% | 1027.3 hPa | 0 mm | - | 0 W/m² | - |
| 1787998513 | 22.22° C | 49% | 1027.4 hPa | 0 mm | - | 0 W/m² | - |
| 1787998208 | 22.22° C | 48% | 1027.4 hPa | 0 mm | - | 0 W/m² | - |
| 1787997902 | 22.22° C | 50% | 1027.4 hPa | 0 mm | - | 0 W/m² | - |
| 1787997601 | 22.22° C | 48% | 1027.3 hPa | 0 mm | - | 0 W/m² | - |
| 1787997294 | 22.22° C | 49% | 1027.6 hPa | 0 mm | - | 0 W/m² | - |
| 1787996989 | 22.22° C | 49% | 1027.6 hPa | 0 mm | - | 0 W/m² | - |
| 1787996684 | 22.22° C | 50% | 1027.5 hPa | 0 mm | - | 0 W/m² | - |
| 1787996379 | 22.22° C | 51% | 1027.6 hPa | 0 mm | - | 0 W/m² | - |
| 1787996079 | 22.22° C | 50% | 1027.6 hPa | 0 mm | - | 0 W/m² | - |
| 1787995774 | 22.78° C | 47% | 1027.6 hPa | 0 mm | - | 0 W/m² | - |
* Rain latest hour (hover to see other rain measurements)
** Current wind speed in m/s (hover to see current wind gust speed)